CW7615 Weather Reports


Display with metric or nautical units.
time (UTC)temp
F
wind
direction
speed
MPH
gust
MPH
rain 1hr
in
rain 24hr
in
rain mn
in
humidity
%
barometer
mb
20260831220154 74 323 2.0 5.0 0.00 0.00 0.00 58 1018.7
20260831215552 74 340 1.0 3.0 0.00 0.00 0.00 59 1018.6
20260831215051 74 302 0.0 2.0 0.00 0.00 0.00 59 1018.5
20260831214620 75 302 0.0 2.0 0.00 0.00 0.00 59 1018.4
20260831214050 75 302 0.0 2.0 0.00 0.00 0.00 58 1018.3
20260831213550 75 302 0.0 4.0 0.00 0.00 0.00 58 1018.2
20260831213050 75 348 2.0 4.0 0.00 0.00 0.00 58 1018.2
20260831212550 75 360 2.0 4.0 0.00 0.00 0.00 58 1018.3
20260831212051 75 5 0.0 2.0 0.00 0.00 0.00 58 1018.4
20260831211549 75 5 0.0 2.0 0.00 0.00 0.00 57 1018.4
20260831211052 76 5 0.0 3.0 0.00 0.00 0.00 57 1018.3
20260831210550 76 5 1.0 3.0 0.00 0.00 0.00 57 1018.3
20260831210049 76 5 1.0 3.0 0.00 0.00 0.00 57 1018.2
20260831205548 76 5 1.0 3.0 0.00 0.00 0.00 57 1018.1
20260831205049 76 5 0.0 3.0 0.00 0.00 0.00 57 1018.2
20260831204555 76 5 1.0 5.0 0.00 0.00 0.00 57 1018.2
20260831204048 76 5 2.0 5.0 0.00 0.00 0.00 57 1018.3
20260831203549 76 26 2.0 4.0 0.00 0.00 0.00 57 1018.2
20260831203050 76 28 0.0 6.0 0.00 0.00 0.00 57 1018.3
20260831202547 76 350 3.0 5.0 0.00 0.00 0.00 56 1018.2
20260831202047 76 5 3.0 5.0 0.00 0.00 0.00 56 1018.1
20260831201549 76 355 3.0 5.0 0.00 0.00 0.00 56 1017.9
20260831201047 76 355 2.0 5.0 0.00 0.00 0.00 56 1017.8
20260831200647 76 360 2.0 5.0 0.00 0.00 0.00 56 1017.7
20260831200050 76 5 2.0 5.0 0.00 0.00 0.00 56 1017.5
20260831195546 76 5 1.0 3.0 0.00 0.00 0.00 56 1017.5
20260831195046 76 360 1.0 4.0 0.00 0.00 0.00 56 1017.5
20260831194548 76 9 2.0 5.0 0.00 0.00 0.00 56 1017.4
20260831194046 76 360 3.0 5.0 0.00 0.00 0.00 57 1017.3
20260831193546 76 5 2.0 5.0 0.00 0.00 0.00 57 1017.4
20260831193045 76 12 2.0 5.0 0.00 0.00 0.00 57 1017.5
20260831192544 76 5 1.0 4.0 0.00 0.00 0.00 57 1017.4
20260831192044 76 31 1.0 3.0 0.00 0.00 0.00 57 1017.5
20260831191544 76 128 0.0 1.0 0.00 0.00 0.00 57 1017.5
20260831191050 76 128 0.0 1.0 0.00 0.00 0.00 57 1017.5
20260831190544 76 128 0.0 0.0 0.00 0.00 0.00 57 1017.5
20260831185545 76 128 0.0 1.0 0.00 0.00 0.00 57 1017.4
20260831185047 76 128 0.0 0.0 0.00 0.00 0.00 57 1017.3
20260831184549 76 128 0.0 0.0 0.00 0.00 0.00 58 1017.3
20260831184043 76 128 0.0 0.0 0.00 0.00 0.00 58 1017.2
20260831183543 77 128 0.0 0.0 0.00 0.00 0.00 57 1017.2
20260831183056 77 128 0.0 0.0 0.00 0.00 0.00 57 1017.2
20260831182543 77 128 0.0 1.0 0.00 0.00 0.00 56 1017.1
20260831182043 77 128 0.0 2.0 0.00 0.00 0.00 56 1017.1
20260831181542 77 128 1.0 3.0 0.00 0.00 0.00 56 1017.1
20260831181042 78 128 1.0 3.0 0.00 0.00 0.00 56 1017.0
20260831180543 78 128 1.0 3.0 0.00 0.00 0.00 55 1017.0
20260831180042 79 128 1.0 4.0 0.00 0.00 0.00 54 1017.1
20260831175542 79 128 2.0 4.0 0.00 0.00 0.00 54 1016.9
20260831175042 80 126 1.0 3.0 0.00 0.00 0.00 52 1016.9
20260831174542 80 128 0.0 3.0 0.00 0.00 0.00 49 1016.8
20260831174041 80 128 0.0 3.0 0.00 0.00 0.00 50 1016.8
20260831173544 80 127 0.0 2.0 0.00 0.00 0.00 49 1016.7
20260831173040 81 127 1.0 2.0 0.00 0.00 0.00 48 1016.6
20260831172540 81 127 0.0 1.0 0.00 0.00 0.00 50 1016.6
20260831172040 80 127 0.0 1.0 0.00 0.00 0.00 50 1016.6
20260831171542 80 127 0.0 2.0 0.00 0.00 0.00 51 1016.6
20260831171040 80 127 0.0 2.0 0.00 0.00 0.00 51 1016.6
20260831170540 79 127 1.0 2.0 0.00 0.00 0.00 53 1016.6
20260831170041 79 127 1.0 2.0 0.00 0.00 0.00 53 1016.6
20260831165540 79 127 1.0 4.0 0.00 0.00 0.00 54 1016.6
20260831165039 79 127 2.0 4.0 0.00 0.00 0.00 54 1016.7
20260831164544 80 127 2.0 4.0 0.00 0.00 0.00 54 1016.6
20260831164039 79 128 2.0 7.0 0.00 0.00 0.00 55 1016.6
20260831163538 80 123 3.0 6.0 0.00 0.00 0.00 55 1016.7
20260831163042 80 124 2.0 5.0 0.00 0.00 0.00 54 1016.7
20260831162540 80 130 3.0 7.0 0.00 0.00 0.00 56 1016.7
20260831162038 80 123 4.0 7.0 0.00 0.00 0.00 57 1016.6
20260831161538 80 137 4.0 7.0 0.00 0.00 0.00 58 1016.6
20260831161038 81 123 3.0 6.0 0.00 0.00 0.00 58 1016.6
20260831160539 81 131 2.0 6.0 0.00 0.00 0.00 58 1016.5
20260831160044 81 145 2.0 6.0 0.00 0.00 0.00 58 1016.4
20260831155537 81 136 2.0 6.0 0.00 0.00 0.00 59 1016.4
20260831155037 81 123 3.0 6.0 0.00 0.00 0.00 58 1016.5
20260831154540 80 128 2.0 7.0 0.00 0.00 0.00 59 1016.6
20260831154036 81 113 3.0 7.0 0.00 0.00 0.00 60 1016.5
20260831153536 80 128 1.0 5.0 0.00 0.00 0.00 60 1016.6
20260831153036 80 130 2.0 7.0 0.00 0.00 0.00 60 1016.6
20260831152535 80 146 2.0 7.0 0.00 0.00 0.00 61 1016.7
20260831152036 79 129 4.0 8.0 0.00 0.00 0.00 61 1016.6
20260831151538 80 142 4.0 8.0 0.00 0.00 0.00 62 1016.7
20260831151037 80 115 5.0 10.0 0.00 0.00 0.00 62 1016.8
20260831150536 80 134 6.0 10.0 0.00 0.00 0.00 62 1016.8
20260831150035 81 175 3.0 9.0 0.00 0.00 0.00 62 1016.7
20260831145533 81 117 3.0 9.0 0.00 0.00 0.00 60 1016.7
20260831145032 81 108 4.0 9.0 0.00 0.00 0.00 58 1016.8
20260831144533 81 140 5.0 10.0 0.00 0.00 0.00 59 1016.8
20260831144031 82 165 6.0 10.0 0.00 0.00 0.00 57 1016.7
20260831143535 83 118 6.0 10.0 0.00 0.00 0.00 54 1016.8
20260831143031 84 134 4.0 9.0 0.00 0.00 0.00 50 1016.7
20260831142530 84 117 5.0 9.0 0.00 0.00 0.00 49 1016.7
20260831142028 85 151 5.0 8.0 0.00 0.00 0.00 48 1016.8
20260831141529 84 130 4.0 8.0 0.00 0.00 0.00 47 1016.8
20260831141026 85 127 5.0 8.0 0.00 0.00 0.00 48 1016.9
20260831140525 84 139 3.0 8.0 0.00 0.00 0.00 47 1016.8
20260831140036 84 128 4.0 8.0 0.00 0.00 0.00 46 1016.9
20260831135525 84 113 3.0 7.0 0.00 0.00 0.00 46 1016.9
20260831135027 84 128 3.0 8.0 0.00 0.00 0.00 46 1016.9
20260831134527 84 128 5.0 8.0 0.00 0.00 0.00 46 1017.0
20260831134024 84 126 4.0 7.0 0.00 0.00 0.00 45 1017.0
20260831133524 84 148 4.0 7.0 0.00 0.00 0.00 46 1017.1
20260831132524 83 128 3.0 8.0 0.00 0.00 0.00 45 1017.2
20260831132024 83 111 4.0 8.0 0.00 0.00 0.00 45 1017.2
20260831131533 83 125 3.0 7.0 0.00 0.00 0.00 46 1017.3
20260831131022 83 125 4.0 9.0 0.00 0.00 0.00 47 1017.2
20260831130522 84 128 6.0 11.0 0.00 0.00 0.00 46 1017.2
20260831130034 84 111 7.0 11.0 0.00 0.00 0.00 45 1017.3
20260831125522 85 119 7.0 11.0 0.00 0.00 0.00 45 1017.1
20260831125022 85 132 5.0 9.0 0.00 0.00 0.00 45 1017.0
20260831124522 85 126 6.0 9.0 0.00 0.00 0.00 45 1017.1
20260831124021 84 113 3.0 9.0 0.00 0.00 0.00 44 1017.2
20260831123524 84 118 5.0 9.0 0.00 0.00 0.00 45 1017.3
20260831123022 85 119 5.0 9.0 0.00 0.00 0.00 44 1017.3
20260831122520 85 117 5.0 8.0 0.00 0.00 0.00 44 1017.3
20260831122020 85 111 5.0 8.0 0.00 0.00 0.00 44 1017.4
20260831121520 85 117 5.0 8.0 0.00 0.00 0.00 43 1017.5
20260831121019 85 146 3.0 7.0 0.00 0.00 0.00 44 1017.5
20260831120517 85 123 3.0 7.0 0.00 0.00 0.00 44 1017.6
20260831120016 84 102 4.0 7.0 0.00 0.00 0.00 44 1017.7
20260831115517 84 118 3.0 7.0 0.00 0.00 0.00 45 1017.7
20260831115013 83 120 4.0 8.0 0.00 0.00 0.00 45 1017.9
20260831114512 83 111 2.0 8.0 0.00 0.00 0.00 46 1017.9
20260831114012 83 100 6.0 8.0 0.00 0.00 0.00 46 1018.1
20260831113511 83 126 4.0 8.0 0.00 0.00 0.00 47 1018.1
20260831113010 83 119 5.0 9.0 0.00 0.00 0.00 46 1018.2
20260831112509 83 108 5.0 10.0 0.00 0.00 0.00 46 1018.2
20260831112007 83 129 6.0 10.0 0.00 0.00 0.00 46 1018.1
20260831111513 83 107 5.0 9.0 0.00 0.00 0.00 46 1018.1
20260831111005 83 117 6.0 9.0 0.00 0.00 0.00 45 1018.1
20260831110503 83 117 3.0 8.0 0.00 0.00 0.00 45 1018.0
20260831110005 83 105 2.0 7.0 0.00 0.00 0.00 45 1018.2
20260831105501 83 101 2.0 8.0 0.00 0.00 0.00 46 1018.1
20260831105100 83 154 5.0 8.0 0.00 0.00 0.00 46 1018.1
20260831104558 83 119 5.0 8.0 0.00 0.00 0.00 45 1018.2
20260831104056 82 119 2.0 8.0 0.00 0.00 0.00 46 1018.1
20260831103558 82 121 3.0 7.0 0.00 0.00 0.00 46 1018.2
20260831103058 81 127 3.0 7.0 0.00 0.00 0.00 46 1018.1
20260831102552 81 126 2.0 8.0 0.00 0.00 0.00 47 1018.1
20260831102051 81 139 3.0 8.0 0.00 0.00 0.00 47 1018.2
20260831101551 81 102 3.0 8.0 0.00 0.00 0.00 47 1018.1
20260831101049 81 123 4.0 8.0 0.00 0.00 0.00 47 1018.2
20260831100549 81 128 4.0 8.0 0.00 0.00 0.00 47 1018.2
20260831100046 81 113 5.0 8.0 0.00 0.00 0.00 47 1018.3
20260831095545 81 124 4.0 8.0 0.00 0.00 0.00 47 1018.2
20260831095044 81 130 5.0 7.0 0.00 0.00 0.00 47 1018.2
20260831094554 81 119 4.0 7.0 0.00 0.00 0.00 48 1018.3
20260831094041 80 126 3.0 7.0 0.00 0.00 0.00 48 1018.2
20260831093540 80 117 3.0 7.0 0.00 0.00 0.00 48 1018.3
20260831093038 80 140 3.0 7.0 0.00 0.00 0.00 49 1018.3
20260831092537 79 112 3.0 7.0 0.00 0.00 0.00 49 1018.2
20260831092035 79 122 4.0 8.0 0.00 0.00 0.00 48 1018.1
20260831091544 80 128 2.0 8.0 0.00 0.00 0.00 49 1018.2
20260831091033 80 117 3.0 7.0 0.00 0.00 0.00 49 1018.2
20260831090532 80 132 3.0 7.0 0.00 0.00 0.00 49 1018.2
20260831090037 80 125 3.0 7.0 0.00 0.00 0.00 49 1017.9
20260831085532 79 123 2.0 6.0 0.00 0.00 0.00 50 1018.1
20260831085028 79 119 2.0 5.0 0.00 0.00 0.00 50 1018.1
20260831084530 79 128 2.0 6.0 0.00 0.00 0.00 51 1018.1
20260831084024 78 134 2.0 4.0 0.00 0.00 0.00 52 1018.2
20260831083624 78 119 2.0 5.0 0.00 0.00 0.00 53 1018.0
20260831083021 77 118 3.0 6.0 0.00 0.00 0.00 53 1018.2
20260831082520 77 123 2.0 6.0 0.00 0.00 0.00 53 1018.1
20260831082019 77 138 1.0 4.0 0.00 0.00 0.00 53 1018.0
20260831081521 77 140 1.0 4.0 0.00 0.00 0.00 52 1018.1
20260831081018 76 128 1.0 3.0 0.00 0.00 0.00 52 1018.1
20260831080515 76 127 0.0 3.0 0.00 0.00 0.00 52 1018.2
20260831080027 76 126 1.0 3.0 0.00 0.00 0.00 52 1018.1
20260831075511 75 128 1.0 4.0 0.00 0.00 0.00 53 1018.1
20260831075010 75 128 2.0 4.0 0.00 0.00 0.00 52 1017.9
20260831074508 75 127 2.0 4.0 0.00 0.00 0.00 52 1017.9
20260831074007 76 121 3.0 6.0 0.00 0.00 0.00 51 1017.7
20260831073505 77 136 3.0 7.0 0.00 0.00 0.00 51 1017.7
20260831073005 77 118 1.0 7.0 0.00 0.00 0.00 50 1017.7
20260831072503 77 24 0.0 2.0 0.00 0.00 0.00 49 1017.5
20260831072000 76 16 0.0 2.0 0.00 0.00 0.00 49 1017.4
20260831071601 75 16 1.0 2.0 0.00 0.00 0.00 48 1017.4
20260831071059 74 15 0.0 3.0 0.00 0.00 0.00 50 1017.2
20260831070557 73 15 0.0 4.0 0.00 0.00 0.00 49 1017.1
20260831070055 72 360 3.0 4.0 0.00 0.00 0.00 50 1017.1
20260831065555 72 327 1.0 5.0 0.00 0.00 0.00 51 1017.1
20260831065053 72 331 2.0 6.0 0.00 0.00 0.00 51 1017.1
20260831064553 71 332 3.0 6.0 0.00 0.00 0.00 51 1017.1
20260831064052 71 346 4.0 8.0 0.00 0.00 0.00 51 1017.0
20260831063551 71 333 4.0 8.0 0.00 0.00 0.00 51 1016.8
20260831063050 71 349 2.0 4.0 0.00 0.00 0.00 51 1016.8
20260831062550 71 355 3.0 5.0 0.00 0.00 0.00 51 1016.8
20260831062048 71 5 1.0 4.0 0.00 0.00 0.00 51 1016.8
20260831061548 71 5 2.0 5.0 0.00 0.00 0.00 51 1016.8
20260831061049 71 355 3.0 5.0 0.00 0.00 0.00 50 1016.6
20260831060547 71 351 2.0 5.0 0.00 0.00 0.00 50 1016.5
20260831060050 72 360 2.0 5.0 0.00 0.00 0.00 50 1016.4
20260831055545 72 5 2.0 5.0 0.00 0.00 0.00 50 1016.4
20260831055044 72 36 3.0 6.0 0.00 0.00 0.00 50 1016.3
20260831054544 72 9 4.0 8.0 0.00 0.00 0.00 50 1016.2
20260831054043 72 344 4.0 8.0 0.00 0.00 0.00 50 1016.1
20260831053543 72 360 4.0 8.0 0.00 0.00 0.00 50 1016.1
20260831053043 72 348 4.0 8.0 0.00 0.00 0.00 50 1016.0
20260831052545 72 333 4.0 6.0 0.00 0.00 0.00 50 1016.0
20260831052043 72 345 4.0 6.0 0.00 0.00 0.00 50 1016.1
20260831051552 72 346 4.0 6.0 0.00 0.00 0.00 50 1016.0
20260831051042 72 349 3.0 6.0 0.00 0.00 0.00 50 1016.0
20260831050542 72 331 3.0 5.0 0.00 0.00 0.00 50 1016.0
20260831050041 72 328 3.0 6.0 0.00 0.00 0.00 50 1016.1
20260831045542 72 332 3.0 9.0 0.00 0.00 0.00 51 1016.0
20260831045044 72 330 4.0 9.0 0.00 0.00 0.00 51 1016.0
20260831044540 72 355 5.0 9.0 0.00 0.00 0.00 51 1016.0
20260831044040 72 344 5.0 8.0 0.00 0.00 0.00 51 1016.0
20260831043540 73 344 5.0 9.0 0.00 0.00 0.00 51 1015.9
20260831043040 73 5 5.0 9.0 0.00 0.00 0.00 50 1016.0
20260831042542 73 5 4.0 8.0 0.00 0.00 0.00 50 1016.1
20260831042039 73 329 4.0 9.0 0.00 0.00 0.00 50 1015.8
20260831041539 73 355 5.0 9.0 0.00 0.00 0.00 50 1015.9
20260831041039 73 336 5.0 9.0 0.00 0.00 0.00 51 1015.8
20260831040538 73 355 4.0 9.0 0.00 0.00 0.00 51 1015.9
20260831040038 73 329 4.0 10.0 0.00 0.00 0.00 50 1015.9
20260831035537 73 333 4.0 10.0 0.00 0.00 0.00 50 1016.1
20260831035037 73 329 5.0 10.0 0.00 0.00 0.00 50 1016.1
20260831034545 73 9 5.0 10.0 0.00 0.00 0.00 50 1016.0
20260831034037 73 342 5.0 9.0 0.00 0.00 0.00 50 1016.0
20260831033535 73 347 5.0 10.0 0.00 0.00 0.00 50 1016.0
20260831033035 73 5 5.0 10.0 0.00 0.00 0.00 51 1016.0
20260831032535 73 355 5.0 9.0 0.00 0.00 0.00 51 1016.1
20260831032034 73 360 5.0 9.0 0.00 0.00 0.00 52 1016.1
20260831031535 72 355 4.0 8.0 0.00 0.00 0.00 52 1016.1
20260831031032 72 336 4.0 10.0 0.00 0.00 0.00 52 1016.2
20260831030532 72 355 5.0 10.0 0.00 0.00 0.00 52 1016.4
20260831030032 72 341 3.0 9.0 0.00 0.00 0.00 52 1016.3
20260831025531 72 326 5.0 9.0 0.00 0.00 0.00 53 1016.4
20260831025031 72 351 5.0 9.0 0.00 0.00 0.00 53 1016.5
20260831024534 72 348 5.0 11.0 0.00 0.00 0.00 53 1016.5
20260831024029 72 346 6.0 11.0 0.00 0.00 0.00 54 1016.6
20260831023528 72 350 5.0 10.0 0.00 0.00 0.00 54 1016.6
20260831023028 72 325 4.0 9.0 0.00 0.00 0.00 54 1016.7
20260831022627 72 337 4.0 9.0 0.00 0.00 0.00 54 1016.7
20260831022028 72 337 4.0 6.0 0.00 0.00 0.00 54 1016.7
20260831021530 71 321 3.0 8.0 0.00 0.00 0.00 54 1016.7
20260831021027 71 333 4.0 8.0 0.00 0.00 0.00 54 1016.7
20260831020526 71 343 4.0 9.0 0.00 0.00 0.00 54 1016.7
20260831020027 71 355 4.0 9.0 0.00 0.00 0.00 55 1016.7
20260831015525 71 15 4.0 8.0 0.00 0.00 0.00 55 1016.9
20260831015026 71 333 3.0 8.0 0.00 0.00 0.00 55 1016.9
20260831014528 71 344 4.0 8.0 0.00 0.00 0.00 55 1017.1
20260831014023 71 351 4.0 5.0 0.00 0.00 0.00 55 1017.1
20260831013522 71 313 3.0 5.0 0.00 0.00 0.00 55 1017.1
20260831013021 71 355 3.0 5.0 0.00 0.00 0.00 55 1017.1
20260831012524 71 346 3.0 5.0 0.00 0.00 0.00 55 1017.1
20260831012020 71 343 3.0 5.0 0.00 0.00 0.00 55 1017.1
20260831011533 71 341 3.0 5.0 0.00 0.00 0.00 55 1017.3
20260831011019 71 333 3.0 5.0 0.00 0.00 0.00 55 1017.2
20260831010519 71 313 3.0 6.0 0.00 0.00 0.00 55 1017.2
20260831010019 71 342 3.0 6.0 0.00 0.00 0.00 55 1017.3
20260831005520 71 341 3.0 6.0 0.00 0.00 0.00 55 1017.5
20260831005019 71 343 3.0 8.0 0.00 0.00 0.00 55 1017.5
20260831004518 71 341 4.0 8.0 0.00 0.00 0.00 56 1017.5
20260831004023 71 332 3.0 6.0 0.00 0.00 0.00 56 1017.6
20260831003519 72 348 3.0 6.0 0.00 0.00 0.00 56 1017.6
20260831003018 72 341 3.0 5.0 0.00 0.00 0.00 56 1017.8
20260831002515 72 355 3.0 5.0 0.00 0.00 0.00 56 1017.7
20260831002018 72 355 3.0 6.0 0.00 0.00 0.00 56 1017.7
20260831001515 72 355 3.0 6.0 0.00 0.00 0.00 56 1017.7
20260831001115 72 343 4.0 6.0 0.00 0.00 0.00 56 1017.8
20260831000515 72 342 2.0 6.0 0.00 0.00 0.00 56 1017.8
20260831000014 72 350 3.0 6.0 0.00 0.00 0.00 56 1017.9
20260830235513 72 350 4.0 8.0 0.00 0.00 0.00 56 1017.8
20260830235012 72 360 5.0 8.0 0.00 0.00 0.00 56 1017.9
20260830234512 72 334 3.0 6.0 0.00 0.00 0.00 56 1017.9
20260830234011 72 328 3.0 5.0 0.00 0.00 0.00 56 1018.1
20260830233511 72 346 3.0 5.0 0.00 0.00 0.00 56 1018.0
20260830233011 72 344 3.0 5.0 0.00 0.00 0.00 56 1018.1
20260830232511 72 338 2.0 5.0 0.00 0.00 0.00 56 1018.1
20260830232011 72 314 2.0 5.0 0.00 0.00 0.00 56 1018.1
20260830231510 72 346 2.0 5.0 0.00 0.00 0.00 56 1018.1
20260830231009 72 323 2.0 5.0 0.00 0.00 0.00 56 1018.1
20260830230509 72 328 2.0 5.0 0.00 0.00 0.00 56 1018.1
20260830230009 72 349 2.0 5.0 0.00 0.00 0.00 56 1018.1
20260830225508 72 340 3.0 5.0 0.00 0.00 0.00 57 1017.9
20260830225008 72 350 2.0 5.0 0.00 0.00 0.00 56 1017.9
20260830224507 72 332 1.0 5.0 0.00 0.00 0.00 56 1017.8
20260830224008 73 349 2.0 5.0 0.00 0.00 0.00 56 1017.9
20260830223506 73 346 1.0 5.0 0.00 0.00 0.00 56 1017.7
20260830223005 73 360 2.0 4.0 0.00 0.00 0.00 56 1017.6
20260830222503 73 355 2.0 4.0 0.00 0.00 0.00 56 1017.4
20260830222001 73 355 2.0 4.0 0.00 0.00 0.00 56 1017.5
20260830221608 73 355 2.0 4.0 0.00 0.00 0.00 56 1017.3
20260830221059 73 22 2.0 5.0 0.00 0.00 0.00 56 1017.3
20260830220558 73 351 2.0 5.0 0.00 0.00 0.00 57 1017.3